Rocky Hill, Texas
Current Conditions -  °F | °C
As of 10:55 PM on Wednesday 22 Oct 2014 (Local Time) from KCNW Reporting Station
Clear Clear  
Wind Chill: 68°   Ceiling: Unl
Heat Index: 68°   Visibility: 10mi
Dew Point: 57°   Wind: 0mph
Humidity: 68%   Direction: NA
Pressure: 30.11"   Gusts: NA
Location:  31.3313°N, 96.8629°W
Report Text: KCNW 230355Z 00000KT 10SM SKC 20/14 A3011
Loading
Personal Weather Stations






























Interactive Weather Map New forecast layout! Learn more

10-Day Weather Forecast

Advertisements
Track Severe Weather on mobile